HISTORICAL SENSOR DATA

Sensor Data Report

DB LIVE
CURRENT TIME--:--:--
DEVICE NETWORK Gateway Status
13 ESP · realtime ~1s · history 60s
Weather WS-MOD-01
OFFLINE
Actuator ACT-MOD-01
OFFLINE
Mainboard L3 MB-L3-01
OFFLINE
Mainboard L5 MB-L5-01
ONLINE
Remote AC AC-REMOTE-01
OFFLINE
PZEM L3-01 PWR-L3-01
OFFLINE
PZEM L3-02 PWR-L3-02
OFFLINE
PZEM L3-03 PWR-L3-03
OFFLINE
PZEM L3-04 PWR-L3-04
OFFLINE
PZEM L5-01 PWR-L5-01
OFFLINE
PZEM L5-02 PWR-L5-02
OFFLINE
PZEM L5-03 PWR-L5-03
OFFLINE
PZEM L5-04 PWR-L5-04
OFFLINE
REPORT FILTER

Periode & Sensor

DATABASE HISTORY
RESET
QUICK RANGE Hari ini 7 hari 30 hari
PERIODE04 Aug 2026sampai 02 Sep 2026
TOTAL DATA40,278sensor readings
MINIMUM-0.50sesuai filter
AVERAGE56.78sesuai filter
MAXIMUM998.00sesuai filter
REPORT RESULT

Data Sensor

04/08/2026 — 02/09/2026 EXPORT CSV
NOTANGGALWAKTUDEVICECHANNELSENSORVALUEUNIT
10701 02/09/2026 14:55:23 MB-L5-01Mainboard Lantai 5 L5-AI-05 Analog Input 5 3.05 V
10702 02/09/2026 14:55:23 MB-L5-01Mainboard Lantai 5 L5-SHT-03-T SHT20 3 Temperature 32.20 °C
10703 02/09/2026 14:55:23 MB-L5-01Mainboard Lantai 5 L5-SHT-02-T SHT20 2 Temperature 32.20 °C
10704 02/09/2026 14:55:23 MB-L5-01Mainboard Lantai 5 L5-SHT-03-RH SHT20 3 Humidity 49.00 %RH
10705 02/09/2026 14:55:23 MB-L5-01Mainboard Lantai 5 L5-AI-04 Analog Input 4 3.05 V
10706 02/09/2026 14:55:23 MB-L3-01Mainboard Lantai 3 L3-ST-01 Surface Temperature 1 29.80 °C
10707 02/09/2026 14:55:23 MB-L5-01Mainboard Lantai 5 L5-AI-03 Analog Input 3 3.05 V
10708 02/09/2026 14:55:23 MB-L3-01Mainboard Lantai 3 L3-AI-05 Analog Input 5 3.12 V
10709 02/09/2026 14:55:23 MB-L5-01Mainboard Lantai 5 L5-RAD-01 Radiation 1 1.00 W/m²
10710 02/09/2026 14:55:23 MB-L3-01Mainboard Lantai 3 L3-SHT-02-T SHT20 2 Temperature 32.10 °C
10711 02/09/2026 14:55:23 MB-L5-01Mainboard Lantai 5 L5-AI-02 Analog Input 2 3.05 V
10712 02/09/2026 14:55:23 MB-L3-01Mainboard Lantai 3 L3-BGT-03 Black Globe Temperature 3 29.10 °C
10713 02/09/2026 14:55:23 MB-L5-01Mainboard Lantai 5 L5-SHT-01-RH SHT20 1 Humidity 48.20 %RH
10714 02/09/2026 14:55:23 MB-L3-01Mainboard Lantai 3 L3-LUX-05 Illuminance / LUX 5 36.00 lux
10715 02/09/2026 14:55:23 MB-L3-01Mainboard Lantai 3 L3-ST-02 Surface Temperature 2 29.80 °C
10716 02/09/2026 14:55:23 MB-L5-01Mainboard Lantai 5 L5-LUX-01 Illuminance / LUX 1 216.50 lux
10717 02/09/2026 14:55:23 MB-L5-01Mainboard Lantai 5 L5-AI-01 Analog Input 1 3.05 V
10718 02/09/2026 14:55:23 MB-L3-01Mainboard Lantai 3 L3-AI-06 Analog Input 6 3.12 V
10719 02/09/2026 14:55:23 MB-L3-01Mainboard Lantai 3 L3-LUX-06 Illuminance / LUX 6 28.90 lux
10720 02/09/2026 14:55:23 MB-L3-01Mainboard Lantai 3 L3-AI-01 Analog Input 1 3.12 V
10721 02/09/2026 14:55:23 MB-L5-01Mainboard Lantai 5 L5-BGT-03 Black Globe Temperature 3 29.70 °C
10722 02/09/2026 14:55:23 MB-L3-01Mainboard Lantai 3 L3-HFT-01 Heat Flow Temperature 1 29.40 °C
10723 02/09/2026 14:55:23 MB-L5-01Mainboard Lantai 5 L5-LUX-03 Illuminance / LUX 3 163.50 lux
10724 02/09/2026 14:55:23 MB-L5-01Mainboard Lantai 5 L5-BGT-02 Black Globe Temperature 2 29.60 °C
10725 02/09/2026 14:55:23 MB-L3-01Mainboard Lantai 3 L3-LUX-02 Illuminance / LUX 2 31.30 lux
10726 02/09/2026 14:55:23 MB-L5-01Mainboard Lantai 5 L5-BGT-01 Black Globe Temperature 1 29.80 °C
10727 02/09/2026 14:55:23 MB-L3-01Mainboard Lantai 3 L3-AI-02 Analog Input 2 3.12 V
10728 02/09/2026 14:55:23 MB-L5-01Mainboard Lantai 5 L5-SHT-01-T SHT20 1 Temperature 32.30 °C
10729 02/09/2026 14:55:23 MB-L3-01Mainboard Lantai 3 L3-LUX-04 Illuminance / LUX 4 68.50 lux
10730 02/09/2026 14:55:23 MB-L5-01Mainboard Lantai 5 L5-HFT-02 Heat Flow Temperature 2 29.90 °C
10731 02/09/2026 14:55:23 MB-L3-01Mainboard Lantai 3 L3-HFT-02 Heat Flow Temperature 2 29.00 °C
10732 02/09/2026 14:55:23 MB-L5-01Mainboard Lantai 5 L5-HFT-01 Heat Flow Temperature 1 30.10 °C
10733 02/09/2026 14:55:23 MB-L5-01Mainboard Lantai 5 L5-LUX-06 Illuminance / LUX 6 213.20 lux
10734 02/09/2026 14:55:23 MB-L5-01Mainboard Lantai 5 L5-ST-02 Surface Temperature 2 30.40 °C
10735 02/09/2026 14:55:23 MB-L3-01Mainboard Lantai 3 L3-LUX-03 Illuminance / LUX 3 96.20 lux
10736 02/09/2026 14:55:23 MB-L5-01Mainboard Lantai 5 L5-LUX-04 Illuminance / LUX 4 209.70 lux
10737 02/09/2026 14:55:23 MB-L3-01Mainboard Lantai 3 L3-AI-03 Analog Input 3 3.12 V
10738 02/09/2026 14:55:23 MB-L5-01Mainboard Lantai 5 L5-LUX-02 Illuminance / LUX 2 142.60 lux
10739 02/09/2026 14:55:23 MB-L5-01Mainboard Lantai 5 L5-ST-01 Surface Temperature 1 30.20 °C
10740 02/09/2026 14:55:23 MB-L3-01Mainboard Lantai 3 L3-SHT-03-RH SHT20 3 Humidity 49.20 %RH
10741 02/09/2026 14:55:23 MB-L3-01Mainboard Lantai 3 L3-SHT-02-RH SHT20 2 Humidity 48.50 %RH
10742 02/09/2026 14:55:23 MB-L3-01Mainboard Lantai 3 L3-BGT-01 Black Globe Temperature 1 29.80 °C
10743 02/09/2026 14:55:21 MB-L5-01Mainboard Lantai 5 L5-SHT-02-T SHT20 2 Temperature 32.20 °C
10744 02/09/2026 14:55:21 MB-L5-01Mainboard Lantai 5 L5-SHT-03-RH SHT20 3 Humidity 48.90 %RH
10745 02/09/2026 14:55:21 MB-L5-01Mainboard Lantai 5 L5-AI-04 Analog Input 4 3.05 V
10746 02/09/2026 14:55:21 MB-L3-01Mainboard Lantai 3 L3-ST-01 Surface Temperature 1 29.80 °C
10747 02/09/2026 14:55:21 MB-L5-01Mainboard Lantai 5 L5-AI-03 Analog Input 3 3.05 V
10748 02/09/2026 14:55:21 MB-L3-01Mainboard Lantai 3 L3-AI-05 Analog Input 5 3.12 V
10749 02/09/2026 14:55:21 MB-L5-01Mainboard Lantai 5 L5-RAD-01 Radiation 1 1.00 W/m²
10750 02/09/2026 14:55:21 MB-L3-01Mainboard Lantai 3 L3-SHT-02-T SHT20 2 Temperature 32.10 °C
10751 02/09/2026 14:55:21 MB-L5-01Mainboard Lantai 5 L5-AI-02 Analog Input 2 3.05 V
10752 02/09/2026 14:55:21 MB-L3-01Mainboard Lantai 3 L3-BGT-03 Black Globe Temperature 3 29.00 °C
10753 02/09/2026 14:55:21 MB-L5-01Mainboard Lantai 5 L5-SHT-01-RH SHT20 1 Humidity 48.30 %RH
10754 02/09/2026 14:55:21 MB-L3-01Mainboard Lantai 3 L3-LUX-05 Illuminance / LUX 5 32.80 lux
10755 02/09/2026 14:55:21 MB-L3-01Mainboard Lantai 3 L3-ST-02 Surface Temperature 2 29.90 °C
10756 02/09/2026 14:55:21 MB-L5-01Mainboard Lantai 5 L5-LUX-01 Illuminance / LUX 1 214.50 lux
10757 02/09/2026 14:55:21 MB-L5-01Mainboard Lantai 5 L5-AI-01 Analog Input 1 3.05 V
10758 02/09/2026 14:55:21 MB-L3-01Mainboard Lantai 3 L3-AI-06 Analog Input 6 3.12 V
10759 02/09/2026 14:55:21 MB-L3-01Mainboard Lantai 3 L3-LUX-06 Illuminance / LUX 6 32.70 lux
10760 02/09/2026 14:55:21 MB-L3-01Mainboard Lantai 3 L3-AI-01 Analog Input 1 3.12 V
10761 02/09/2026 14:55:21 MB-L5-01Mainboard Lantai 5 L5-BGT-03 Black Globe Temperature 3 29.80 °C
10762 02/09/2026 14:55:21 MB-L3-01Mainboard Lantai 3 L3-HFT-01 Heat Flow Temperature 1 29.50 °C
10763 02/09/2026 14:55:21 MB-L5-01Mainboard Lantai 5 L5-LUX-03 Illuminance / LUX 3 160.40 lux
10764 02/09/2026 14:55:21 MB-L5-01Mainboard Lantai 5 L5-BGT-02 Black Globe Temperature 2 29.70 °C
10765 02/09/2026 14:55:21 MB-L3-01Mainboard Lantai 3 L3-LUX-02 Illuminance / LUX 2 30.60 lux
10766 02/09/2026 14:55:21 MB-L5-01Mainboard Lantai 5 L5-BGT-01 Black Globe Temperature 1 29.80 °C
10767 02/09/2026 14:55:21 MB-L3-01Mainboard Lantai 3 L3-AI-02 Analog Input 2 3.12 V
10768 02/09/2026 14:55:21 MB-L5-01Mainboard Lantai 5 L5-SHT-01-T SHT20 1 Temperature 32.30 °C
10769 02/09/2026 14:55:21 MB-L3-01Mainboard Lantai 3 L3-LUX-04 Illuminance / LUX 4 41.30 lux
10770 02/09/2026 14:55:21 MB-L5-01Mainboard Lantai 5 L5-HFT-02 Heat Flow Temperature 2 30.10 °C
10771 02/09/2026 14:55:21 MB-L3-01Mainboard Lantai 3 L3-HFT-02 Heat Flow Temperature 2 29.10 °C
10772 02/09/2026 14:55:21 MB-L3-01Mainboard Lantai 3 L3-SHT-01-T SHT20 1 Temperature 32.10 °C
10773 02/09/2026 14:55:21 MB-L5-01Mainboard Lantai 5 L5-HFT-01 Heat Flow Temperature 1 30.10 °C
10774 02/09/2026 14:55:21 MB-L5-01Mainboard Lantai 5 L5-LUX-06 Illuminance / LUX 6 211.00 lux
10775 02/09/2026 14:55:21 MB-L5-01Mainboard Lantai 5 L5-ST-02 Surface Temperature 2 30.50 °C
10776 02/09/2026 14:55:21 MB-L3-01Mainboard Lantai 3 L3-LUX-03 Illuminance / LUX 3 102.70 lux
10777 02/09/2026 14:55:21 MB-L3-01Mainboard Lantai 3 L3-SHT-01-RH SHT20 1 Humidity 48.60 %RH
10778 02/09/2026 14:55:21 MB-L5-01Mainboard Lantai 5 L5-LUX-04 Illuminance / LUX 4 208.70 lux
10779 02/09/2026 14:55:21 MB-L3-01Mainboard Lantai 3 L3-AI-03 Analog Input 3 3.12 V
10780 02/09/2026 14:55:21 MB-L5-01Mainboard Lantai 5 L5-LUX-02 Illuminance / LUX 2 152.00 lux
10781 02/09/2026 14:55:21 MB-L5-01Mainboard Lantai 5 L5-ST-01 Surface Temperature 1 30.20 °C
10782 02/09/2026 14:55:21 MB-L3-01Mainboard Lantai 3 L3-SHT-03-RH SHT20 3 Humidity 49.30 %RH
10783 02/09/2026 14:55:21 MB-L3-01Mainboard Lantai 3 L3-SHT-02-RH SHT20 2 Humidity 48.40 %RH
10784 02/09/2026 14:55:21 MB-L3-01Mainboard Lantai 3 L3-BGT-01 Black Globe Temperature 1 29.80 °C
10785 02/09/2026 14:55:21 MB-L5-01Mainboard Lantai 5 L5-RAD-02 Radiation 2 1.00 W/m²
10786 02/09/2026 14:55:21 MB-L3-01Mainboard Lantai 3 L3-LUX-01 Illuminance / LUX 1 18.30 lux
10787 02/09/2026 14:55:21 MB-L5-01Mainboard Lantai 5 L5-LUX-05 Illuminance / LUX 5 382.70 lux
10788 02/09/2026 14:55:21 MB-L3-01Mainboard Lantai 3 L3-RAD-02 Radiation 2 1.00 W/m²
10789 02/09/2026 14:55:21 MB-L3-01Mainboard Lantai 3 L3-SHT-03-T SHT20 3 Temperature 31.80 °C
10790 02/09/2026 14:55:21 MB-L5-01Mainboard Lantai 5 L5-AI-06 Analog Input 6 3.05 V
10791 02/09/2026 14:55:21 MB-L5-01Mainboard Lantai 5 L5-SHT-02-RH SHT20 2 Humidity 48.20 %RH
10792 02/09/2026 14:55:21 MB-L3-01Mainboard Lantai 3 L3-AI-04 Analog Input 4 3.12 V
10793 02/09/2026 14:55:21 MB-L3-01Mainboard Lantai 3 L3-BGT-02 Black Globe Temperature 2 29.70 °C
10794 02/09/2026 14:55:21 MB-L3-01Mainboard Lantai 3 L3-RAD-01 Radiation 1 1.00 W/m²
10795 02/09/2026 14:55:21 MB-L5-01Mainboard Lantai 5 L5-AI-05 Analog Input 5 3.05 V
10796 02/09/2026 14:55:21 MB-L5-01Mainboard Lantai 5 L5-SHT-03-T SHT20 3 Temperature 32.20 °C
10797 02/09/2026 14:55:19 MB-L3-01Mainboard Lantai 3 L3-AI-06 Analog Input 6 3.12 V
10798 02/09/2026 14:55:19 MB-L3-01Mainboard Lantai 3 L3-LUX-06 Illuminance / LUX 6 29.60 lux
10799 02/09/2026 14:55:19 MB-L3-01Mainboard Lantai 3 L3-AI-01 Analog Input 1 3.12 V
10800 02/09/2026 14:55:19 MB-L5-01Mainboard Lantai 5 L5-BGT-03 Black Globe Temperature 3 29.80 °C
Menampilkan maksimal 100 data per halaman